Highgate, VT

11:48 PM EST on November 21, 2019 (GMT -0500)
Franklin County State

Weather History for KFSO - September, 2019

Change the Weather History Date:

Sunday, September 1, 2019

  Actual Average (WUND) Record (WUND)
Temperature  
Mean Temperature 63 °F -  
Max Temperature 77 °F - - (-1)
Min Temperature 49 °F - - (-1)
Degree Days  
Heating Degree Days 2    
Growing Degree Days 13 (Base 50)    
Moisture  
Dew Point 52 °F    
Average Humidity 69    
Maximum Humidity 96    
Minimum Humidity 41    
Precipitation  
Precipitation 0.00 in - - ()
Sea Level Pressure  
Sea Level Pressure 30.30 in    
Wind  
Wind Speed 2 mph (South)    
Max Wind Speed 9 mph    
Max Gust Speed 18 mph    
Visibility 10 miles    
Events Rain    
Averages and records for this station are not official NWS values.
T = Trace of Precipitation, MM = Missing Value Source: NWS Daily Summary

Daily Weather History Graph

Daily Weather History Graph

Search for Another Location

Airport or City:

Astronomy

Sep. 01, 2019 Rise Set
Actual Time 6:14 AM EDT 7:29 PM EDT
Civil Twilight 5:43 AM EDT 8:00 PM EDT
Nautical Twilight 5:07 AM EDT 8:36 PM EDT
Astronomical Twilight 4:28 AM EDT 9:14 PM EDT
Moon 8:45 AM EDT (9/1) 9:09 PM EDT (9/1)
Length of Visible Light 14h 16m
Length of Day
13h 15m
Waxing Crescent, 8% of the Moon is Illuminated
Sep 1
Waxing Crescent
Sep 5
First Quarter
Sep 14
Full
Sep 21
Last Quarter
Sep 28
New

Hourly Weather History & Observations

Time (EDT) Temp. Dew Point Humidity Pressure Visibility Wind Dir Wind Speed Gust Speed Precip Events Conditions
12:16 AM 53.1 °F 51.8 °F 95% 30.33 in 10.0 mi Calm Calm - N/A   Clear
12:36 AM 51.8 °F 50.5 °F 95% 30.34 in 7.0 mi Calm Calm - N/A   Clear
12:55 AM 51.1 °F 50.0 °F 96% 30.34 in 10.0 mi Calm Calm - N/A   Clear
1:15 AM 51.1 °F 49.8 °F 95% 30.34 in 10.0 mi Calm Calm - N/A   Clear
1:36 AM 50.5 °F 49.3 °F 95% 30.35 in 10.0 mi Calm Calm - N/A   Clear
1:55 AM 50.0 °F 48.6 °F 95% 30.35 in 10.0 mi Calm Calm - N/A   Clear
2:15 AM 50.2 °F 48.9 °F 95% 30.35 in 10.0 mi Calm Calm - N/A   Clear
2:35 AM 50.2 °F 49.1 °F 96% 30.35 in 10.0 mi Calm Calm - N/A   Clear
2:56 AM 50.2 °F 48.9 °F 95% 30.35 in 2.0 mi Calm Calm - N/A   Clear
3:16 AM 50.4 °F 49.1 °F 95% 30.35 in 10.0 mi Calm Calm - N/A   Clear
3:35 AM 49.8 °F 48.6 °F 95% 30.35 in 10.0 mi Calm Calm - N/A   Clear
3:56 AM 49.5 °F 48.2 °F 95% 30.35 in 10.0 mi SSE 3.5 mph - N/A   Clear
4:15 AM 50.0 °F 48.9 °F 96% 30.35 in 10.0 mi Calm Calm - N/A   Clear
4:36 AM 49.5 °F 48.2 °F 95% 30.35 in 10.0 mi Calm Calm - N/A   Clear
4:55 AM 50.4 °F 49.1 °F 95% 30.35 in 10.0 mi Calm Calm - N/A   Clear
5:15 AM 51.4 °F 50.2 °F 95% 30.35 in 10.0 mi Calm Calm - N/A   Clear
5:35 AM 51.8 °F 50.4 °F 95% 30.35 in 10.0 mi Calm Calm - N/A   Clear
5:55 AM 51.8 °F 50.5 °F 95% 30.36 in 10.0 mi Calm Calm - N/A   Clear
6:16 AM 52.2 °F 50.9 °F 95% 30.36 in 10.0 mi ESE 4.6 mph - N/A   Clear
6:35 AM 52.3 °F 51.1 °F 95% 30.36 in 10.0 mi East 4.6 mph - N/A   Clear
6:55 AM 52.2 °F 50.9 °F 95% 30.37 in 10.0 mi ESE 3.5 mph - N/A   Clear
7:15 AM 52.7 °F 51.3 °F 95% 30.38 in 10.0 mi SSE 4.6 mph - N/A   Clear
7:36 AM 54.0 °F 52.7 °F 95% 30.38 in 10.0 mi SE 3.5 mph - N/A   Clear
7:55 AM 55.4 °F 54.1 °F 96% 30.38 in 10.0 mi SE 3.5 mph - N/A   Clear
8:16 AM 57.2 °F 55.2 °F 93% 30.38 in 10.0 mi Calm Calm - N/A   Clear
8:36 AM 59.2 °F 54.5 °F 84% 30.38 in 10.0 mi Calm Calm - N/A   Clear
8:55 AM 60.8 °F 54.7 °F 80% 30.38 in 10.0 mi SSE 3.5 mph - N/A   Clear
9:15 AM 62.4 °F 53.4 °F 72% 30.38 in 10.0 mi Calm Calm - N/A   Clear
9:36 AM 64.8 °F 55.0 °F 71% 30.38 in 10.0 mi South 3.5 mph - N/A   Clear
9:56 AM 65.8 °F 54.7 °F 67% 30.38 in 10.0 mi SSW 3.5 mph - N/A   Clear
10:15 AM 67.1 °F 54.3 °F 63% 30.38 in 10.0 mi South 3.5 mph - N/A   Clear
10:36 AM 68.2 °F 54.9 °F 62% 30.38 in 10.0 mi South 4.6 mph - N/A   Clear
10:55 AM 69.1 °F 54.9 °F 60% 30.38 in 10.0 mi SSE 4.6 mph - N/A   Clear
11:16 AM 69.8 °F 54.9 °F 59% 30.37 in 10.0 mi Calm Calm - N/A   Clear
11:35 AM 70.9 °F 53.4 °F 54% 30.36 in 10.0 mi South 3.5 mph - N/A   Clear
11:56 AM 71.4 °F 52.7 °F 52% 30.35 in 10.0 mi SSW 5.8 mph - N/A   Clear
12:15 PM 72.7 °F 51.8 °F 48% 30.35 in 10.0 mi SSW 9.2 mph - N/A   Scattered Clouds
12:35 PM 73.8 °F 52.5 °F 47% 30.33 in 10.0 mi SW 5.8 mph - N/A   Clear
12:56 PM 73.2 °F 52.3 °F 48% 30.33 in 10.0 mi SSW 4.6 mph - N/A   Clear
1:15 PM 73.9 °F 51.6 °F 45% 30.32 in 10.0 mi South 5.8 mph - N/A   Clear
1:35 PM 75.2 °F 54.5 °F 48% 30.32 in 10.0 mi SSW 5.8 mph - N/A   Clear
1:55 PM 75.2 °F 52.2 °F 44% 30.31 in 10.0 mi South 5.8 mph - N/A   Clear
2:16 PM 75.4 °F 54.3 °F 48% 30.30 in 10.0 mi SSW 5.8 mph - N/A   Scattered Clouds
2:35 PM 75.9 °F 52.3 °F 44% 30.29 in 10.0 mi South 4.6 mph - N/A   Clear
2:55 PM 75.7 °F 51.4 °F 43% 30.28 in 10.0 mi Calm Calm - N/A   Clear
3:15 PM 76.1 °F 50.7 °F 41% 30.28 in 10.0 mi SSW 6.9 mph - N/A   Clear
3:36 PM 76.5 °F 51.1 °F 41% 30.26 in 10.0 mi SSW 3.5 mph - N/A   Clear
3:55 PM 77.0 °F 51.4 °F 41% 30.25 in 10.0 mi SSW 5.8 mph - N/A   Clear
4:16 PM 77.0 °F 52.0 °F 42% 30.25 in 10.0 mi SW 5.8 mph - N/A   Clear
4:35 PM 75.2 °F 52.5 °F 45% 30.24 in 10.0 mi South 5.8 mph - N/A   Clear
4:56 PM 74.5 °F 53.6 °F 48% 30.23 in 10.0 mi South 5.8 mph - N/A   Clear
5:15 PM 76.3 °F 53.6 °F 45% 30.22 in 10.0 mi South 4.6 mph - N/A   Clear
5:35 PM 77.2 °F 53.1 °F 43% 30.22 in 10.0 mi South 4.6 mph - N/A   Clear
5:56 PM 76.1 °F 50.9 °F 41% 30.22 in 10.0 mi South 8.1 mph 18.4 mph N/A   Clear
6:15 PM 72.7 °F 51.1 °F 47% 30.22 in 10.0 mi South 8.1 mph - N/A   Clear
6:35 PM 72.0 °F 51.3 °F 48% 30.21 in 10.0 mi South 5.8 mph - N/A   Clear
6:55 PM 71.6 °F 50.9 °F 48% 30.21 in 10.0 mi South 6.9 mph - N/A   Clear
7:16 PM 71.1 °F 50.9 °F 49% 30.20 in 10.0 mi South 8.1 mph - N/A   Clear
7:35 PM 69.6 °F 51.8 °F 53% 30.19 in 10.0 mi SSE 6.9 mph - N/A   Clear
7:56 PM 68.9 °F 52.2 °F 55% 30.19 in 10.0 mi South 4.6 mph - N/A   Clear
8:15 PM 69.8 °F 52.5 °F 54% 30.18 in 10.0 mi South 6.9 mph - N/A   Scattered Clouds
8:35 PM 69.1 °F 53.1 °F 57% 30.18 in 10.0 mi South 5.8 mph - N/A   Mostly Cloudy
8:55 PM 69.1 °F 53.4 °F 57% 30.18 in 10.0 mi South 3.5 mph - N/A   Mostly Cloudy
9:16 PM 68.9 °F 53.4 °F 58% 30.18 in 10.0 mi South 5.8 mph - N/A   Overcast
9:36 PM 69.1 °F 53.8 °F 58% 30.17 in 10.0 mi South 4.6 mph - N/A   Light Drizzle
9:55 PM 68.0 °F 55.4 °F 64% 30.16 in 10.0 mi South 6.9 mph - N/A Rain Light Rain
10:15 PM 68.2 °F 55.4 °F 64% 30.17 in 10.0 mi South 6.9 mph - N/A   Overcast
10:36 PM 68.2 °F 55.8 °F 64% 30.17 in 10.0 mi South 5.8 mph - N/A Rain Light Rain
10:55 PM 67.6 °F 56.3 °F 67% 30.17 in 10.0 mi South 5.8 mph - N/A   Light Drizzle
11:15 PM 66.7 °F 57.6 °F 72% 30.17 in 10.0 mi South 8.1 mph - N/A   Light Drizzle
11:35 PM 65.3 °F 59.2 °F 81% 30.17 in 10.0 mi South 5.8 mph - N/A Rain Rain
11:55 PM 63.7 °F 60.4 °F 89% 30.17 in 7.0 mi South 3.5 mph - N/A Rain Light Rain